Home > Weather > Adama > Past weeks

Flag for Ethiopia Weather for the Past 2 Weeks in Adama, Ethiopia

Now
77 °F

Passing clouds.


Feels Like: 78 °F
Forecast: 54 / 84 °F
Wind: 9 mph from South

Location: Addis Ababa Airport

Current Time: Feb 12, 2016 at 5:11:13 PM

Latest Report: Feb 12, 2016 at 4:00 PM


Visibility: N/A

Pressure: 30.27 "Hg (25.14 "Hg at 1621m altitude)

Humidity: 34%

Dew point: 46 °F

Location of AdamaLocation

Historic Weather in Adama — Graph

°F

Adama Temperature Yesterday

Maximum temperature yesterday: 79 °F (at 3:00 PM)
Minimum temperature yesterday: 57 °F (at 5:00 AM)
Average temperature yesterday: 67 °F

High & Low Weather Summary for the Past Weeks

 TemperatureHumidityPressure
High79 °F (Feb 11, 3:00 PM)88% (Jan 29, 12:00 AM)30.69 "Hg (Jan 29, 12:00 AM)
Low52 °F (Feb 5, 6:00 AM)24% (Feb 3, 2:00 PM)30.24 "Hg (Feb 11, 5:00 PM)
Average64 °F55%30.36 "Hg
* Reported Jan 28 6:00 PM — Feb 12 4:00 PM, Adama, Weather by CustomWeather, © 2016

Note: Actual official high and low records may vary slightly from our data, if they occured in-between our weather recording intervals... More about our weather records

Advertising

Adama Weather History for the Previous 24 Hours

 ConditionsComfort  
Time TempWeatherWind HumidityBarometerVisibility
4:00 PM
Fri, Feb 12
77 °FPassing clouds.9 mph34%30.27 "HgN/A
3:00 PM77 °FPassing clouds.9 mph34%30.30 "HgN/A
2:00 PM75 °FPassing clouds.12 mph31%30.30 "HgN/A
12:00 PM72 °FPassing clouds.9 mph31%30.36 "HgN/A
10:00 AM64 °FPassing clouds.13 mph49%30.42 "HgN/A
9:00 AM63 °FPassing clouds.13 mph45%30.42 "HgN/A
7:00 AM54 °FPartly sunny.No wind67%30.36 "HgN/A
2:00 AM57 °FPassing clouds.9 mph63%30.33 "HgN/A
1:00 AM59 °FPassing clouds.9 mph68%30.36 "HgN/A
12:00 AM61 °FPassing clouds.12 mph63%30.36 "HgN/A
11:00 PM
Thu, Feb 11
61 °FPassing clouds.9 mph63%30.36 "HgN/A
10:00 PM63 °FPassing clouds.12 mph56%30.36 "HgN/A
9:00 PM64 °FPassing clouds.12 mph46%30.36 "HgN/A
8:00 PM66 °FPassing clouds.13 mph46%30.33 "HgN/A
7:00 PM68 °FPassing clouds.16 mph40%30.33 "HgN/A
6:00 PM73 °FScattered clouds.14 mph33%30.30 "HgN/A
5:00 PM77 °FPassing clouds.14 mph32%30.24 "HgN/A
Weather by CustomWeather, © 2016

See weather overviewHow to use our weather pages